{"data":{"norad_id":53526,"intl_designator":"2022-100E","name":"YAOGAN-35 04C","alt_names":[],"object_type":"PAYLOAD","status":"ACTIVE","operator":null,"country":"PRC","launch_date":"2022-08-19","launch_site_code":"XICLF","launch_vehicle":null,"mission":null,"orbit_class":"UNKNOWN","rcs_meters":null,"size_class":null,"mass_kg":null,"dimensions":null,"purposes":[],"wikipedia_slug":null,"has_3d_model":false,"image_url":null,"decayed_at":null,"tle_current":{"epoch":"2026-05-25T05:29:50.506656Z","epoch_age_seconds":65823,"freshness":"FRESH","line1":"1 53526U 22100E   26145.22905679  .00006378  00000+0  27814-3 0  9992","line2":"2 53526  34.9943 220.0624 0009857 211.6341 148.3781 15.21453611209460","mean_motion":15.21453611,"eccentricity":0.0009857,"inclination_deg":34.9943,"raan_deg":220.0624,"arg_perigee_deg":211.6341,"mean_anomaly_deg":148.3781,"bstar":0.00027814,"rev_number":20946,"period_min":94.646329640871,"perigee_km":494.67402348161,"apogee_km":508.23645161872,"semimajor_km":6879.5922375502,"source":"CELESTRAK","updated_at":"2026-05-25T13:37:58.225185Z"}}}